Theta_e
324 332 343 343 345 348 348 347 347 348 348 348 347 347 347 347 345 344 345 347 347 347 348 348 349 350 349 349 348 348 348 348 348 347 346 346 343 346 351 352 350 348 354
326 331 340 340 342 346 347 347 347 347 347 346 346 346 345 344 343 341 341 341 343 346 347 347 348 346 346 347 347 347 347 347 348 347 345 344 345 343 350 351 350 350 352
326 328 331 338 339 341 343 344 344 344 345 345 344 342 340 339 338 338 337 337 338 339 340 343 343 341 340 342 344 345 345 345 345 344 342 338 336 351 353 351 351 353 352
323 324 326 336 337 339 338 338 339 338 340 341 340 338 335 335 335 335 333 333 334 335 337 339 338 336 335 336 339 341 342 341 342 342 335 336 335 353 351 351 351 351 350
318 321 326 332 335 335 334 335 336 335 335 336 334 332 331 329 328 327 326 325 326 327 331 334 332 331 331 332 334 335 335 334 335 336 333 332 334 346 347 347 348 349 348
315 318 326 328 330 330 329 330 331 331 334 329 327 325 325 323 322 321 321 321 321 322 325 324 323 322 322 324 327 329 329 329 328 324 329 332 332 342 345 346 348 346 346
311 314 318 325 326 326 325 325 325 326 327 323 321 320 319 318 318 319 319 319 318 319 320 319 319 318 318 318 319 320 319 319 315 316 321 327 329 344 340 343 345 346 347
309 311 313 321 323 322 322 322 321 321 320 319 318 316 316 316 315 316 316 316 316 316 317 317 317 316 316 316 316 314 314 315 311 308 314 323 334 342 340 341 342 342 343
307 307 306 309 314 318 319 319 319 317 316 315 314 313 312 311 311 310 312 313 314 314 315 315 315 314 315 315 315 314 316 317 304 309 315 324 331 335 341 341 340 340 340
303 303 303 304 304 304 306 316 316 314 312 311 310 309 309 309 308 307 307 310 311 312 312 312 312 311 310 311 311 311 311 308 301 302 304 307 320 325 332 336 339 339 339
299 299 299 301 301 301 302 308 312 310 309 308 306 307 305 298 299 301 306 308 308 308 309 309 308 307 306 305 307 308 307 301 301 301 301 313 316 319 321 324 327 332 336
294 296 297 297 299 299 302 301 299 301 300 300 299 298 299 297 298 301 304 305 304 303 304 305 305 303 300 296 297 302 299 299 299 300 301 310 313 315 317 318 319 322 325
294 295 296 297 296 297 296 297 296 297 296 297 296 297 297 296 295 295 294 294 294 297 293 295 294 294 294 294 295 295 296 297 296 298 301 308 310 313 315 316 317 318 320
293 295 295 295 296 294 296 297 296 296 295 295 295 296 295 293 292 292 292 292 291 291 290 290 291 292 292 293 294 294 294 294 294 296 298 305 307 311 313 315 317 317 319
295 294 294 294 295 295 295 295 295 295 295 295 293 294 294 292 290 291 291 290 290 290 289 289 290 290 291 292 293 293 293 293 293 294 295 301 304 307 310 313 315 316 318
297 295 294 295 295 296 294 293 294 293 294 294 292 292 293 291 290 290 290 290 289 289 289 289 289 289 289 290 291 292 292 292 293 293 294 294 302 304 306 309 313 314 316
298 296 294 294 294 295 294 293 293 293 293 292 292 291 291 291 289 289 288 288 288 288 288 288 288 288 288 289 289 290 291 292 292 292 293 294 295 301 304 307 309 311 312
296 294 294 296 294 294 293 292 293 292 292 292 291 290 290 290 289 288 287 287 287 287 287 286 286 286 286 286 286 288 289 289 289 290 291 292 293 295 300 305 307 308 309
297 295 293 294 293 293 292 292 292 290 291 290 290 289 289 289 289 287 287 286 287 286 286 287 286 285 284 285 286 287 287 287 288 290 290 291 293 295 295 301 306 307 308
296 294 293 293 292 292 292 290 290 289 289 289 288 289 289 288 288 287 286 286 287 286 285 285 284 285 284 284 286 286 286 287 286 286 288 291 293 295 293 295 296 299 303
294 292 292 291 292 292 291 289 288 289 288 287 287 288 288 287 287 286 286 285 285 284 284 285 284 284 283 284 282 283 283 285 285 286 286 286 287 290 292 292 291 292 293
292 292 291 291 291 292 292 291 288 288 286 287 287 287 288 287 287 286 285 284 284 283 283 283 283 282 283 283 280 280 279 282 285 285 285 286 285 288 288 289 289 290 291
292 291 291 291 291 292 291 289 286 286 285 285 285 286 286 287 286 285 284 284 283 283 282 282 282 282 281 281 282 280 277 277 280 283 284 284 284 284 285 287 290 290 289
292 292 292 291 290 291 290 290 287 287 286 288 288 286 285 286 285 285 284 283 282 282 282 282 283 281 281 280 281 283 281 281 278 277 282 283 284 285 285 286 287 288 290
292 291 291 290 290 290 290 290 288 287 287 282 283 285 284 284 284 284 283 282 281 281 281 281 281 281 281 280 280 280 280 279 280 278 276 278 282 284 284 284 285 286 287
290 290 290 290 289 290 289 289 288 287 283 282 283 284 284 283 283 282 283 281 281 281 280 281 280 280 280 280 280 280 280 278 278 277 276 277 278 280 282 283 284 284 285
Wind_Speed
2 3 6 10 11 14 12 8 7 8 12 13 13 14 14 14 14 13 12 13 11 10 10 11 11 12 11 12 11 10 10 10 8 9 8 9 9 8 3 1 3 4 8
8 5 8 10 10 12 16 14 15 14 13 14 12 13 12 13 13 12 11 11 11 12 12 11 13 13 13 12 10 10 11 11 10 9 10 8 9 9 7 2 2 4 5
10 6 6 10 9 10 11 10 12 11 12 13 14 13 12 11 9 10 11 11 10 9 10 13 14 13 12 12 13 12 11 11 12 11 12 6 6 6 5 4 3 5 6
10 7 5 10 11 11 10 10 8 8 9 10 11 11 9 9 11 11 12 12 12 11 10 11 11 11 10 10 10 12 12 12 12 12 6 7 6 9 7 6 8 9 8
9 7 6 11 12 12 11 11 12 11 9 10 10 11 11 11 11 12 12 12 12 11 10 11 11 11 11 11 11 11 12 12 12 8 6 5 4 6 8 8 7 8 9
9 7 9 12 13 12 12 12 13 12 12 12 12 12 12 11 11 11 12 12 13 12 12 11 11 11 11 11 10 11 12 13 12 6 6 7 6 5 6 8 8 8 8
7 7 6 13 13 13 12 12 12 13 13 12 12 11 11 11 12 12 12 13 13 13 12 12 12 12 12 11 11 11 12 14 9 7 7 6 6 7 3 4 6 8 9
10 7 6 9 11 12 13 13 13 13 13 12 12 12 12 12 12 12 12 12 12 12 12 13 13 13 13 13 12 13 14 13 8 6 7 6 11 10 4 3 4 6 8
9 8 6 6 8 11 13 13 14 14 13 13 13 13 12 12 12 13 13 13 14 13 15 15 15 15 16 17 16 17 18 15 7 5 7 5 14 14 12 9 7 6 8
8 8 8 7 7 6 6 12 14 14 13 13 12 10 11 11 12 12 10 12 13 13 15 15 16 17 17 17 17 17 17 13 7 7 6 6 16 15 14 14 13 11 10
7 9 8 8 7 7 6 7 12 14 13 12 9 7 8 4 6 6 9 10 12 12 13 13 14 15 15 15 15 15 11 4 5 4 4 15 16 14 13 13 15 15 15
10 8 10 9 10 8 7 7 6 6 5 5 5 5 5 5 4 5 7 10 11 11 12 13 13 13 10 5 4 9 4 5 4 5 3 16 16 16 14 14 13 15 15
9 7 10 10 9 9 7 5 3 3 4 4 6 5 5 4 4 3 3 3 3 7 4 6 5 4 5 4 4 5 5 5 3 4 7 15 16 15 15 14 13 14 15
12 13 11 10 9 8 6 7 5 4 4 4 5 6 5 3 4 4 2 3 3 2 4 4 3 4 6 6 6 6 5 5 4 4 6 15 18 18 17 16 16 14 14
14 13 13 11 11 9 8 5 5 5 5 5 5 5 5 5 5 4 3 3 3 3 4 5 5 5 6 7 6 7 8 8 6 3 3 12 16 18 18 17 17 16 15
15 16 14 14 12 9 7 7 6 5 6 5 5 5 6 5 5 4 3 4 3 3 3 3 4 4 4 5 7 9 9 8 8 8 6 5 15 17 17 16 15 14 15
13 15 17 14 12 12 9 7 6 5 6 5 5 6 7 6 6 6 4 4 3 2 4 4 4 4 4 5 5 6 7 8 8 9 8 6 7 13 14 13 15 15 15
13 17 17 15 15 12 9 6 5 5 5 5 5 5 7 6 7 5 4 4 3 3 3 2 3 4 4 4 4 6 6 7 8 8 7 6 5 5 8 13 13 14 14
18 18 19 16 16 13 8 6 6 7 5 5 5 5 7 7 7 5 4 4 4 3 2 2 3 3 3 4 5 6 6 7 6 5 7 6 6 5 4 8 11 12 13
17 18 19 14 15 14 9 6 4 5 4 5 5 5 8 6 7 6 5 5 4 3 2 2 2 1 1 3 7 8 7 7 4 4 4 5 5 5 4 3 4 4 13
15 17 19 18 16 13 9 8 6 8 5 4 5 7 7 6 6 6 4 5 5 4 4 3 1 2 3 5 4 4 4 5 3 3 2 4 5 4 4 3 3 3 4
19 19 19 18 17 14 10 9 5 5 3 3 3 5 7 8 7 6 6 5 5 4 4 3 3 2 2 4 3 2 6 6 4 8 5 4 5 3 5 6 6 6 4
19 21 20 19 19 16 13 8 4 4 3 3 4 6 6 8 8 7 7 5 5 4 4 4 4 4 1 3 4 1 3 4 9 3 6 6 4 4 4 5 6 6 7
19 17 19 19 19 15 15 13 12 11 10 9 9 6 5 8 7 7 7 6 6 4 5 4 4 3 3 2 1 1 2 3 3 7 5 5 11 7 5 4 7 7 5
16 18 17 18 17 15 17 17 13 11 8 3 4 9 6 6 8 8 8 7 6 4 5 5 4 4 3 2 3 1 2 3 5 5 8 3 7 8 8 8 8 8 8
11 14 15 17 18 17 18 17 19 17 10 6 8 10 8 7 7 7 7 7 6 5 5 4 4 4 3 2 2 3 3 3 2 3 6 10 12 8 5 11 10 8 8
Wind_Direction
107 88 106 112 96 89 102 112 111 101 96 88 77 69 66 69 66 55 50 48 51 49 46 42 44 47 47 41 35 31 27 22 19 13 350 335 315 295 281 39 31 25 37
128 100 98 115 101 102 95 89 91 91 91 90 89 81 66 66 64 68 62 57 45 42 44 45 49 39 32 33 27 23 19 15 10 352 335 327 305 277 247 139 43 30 19
117 109 101 111 107 98 97 100 104 98 87 89 86 78 69 65 62 59 55 50 50 42 35 32 39 35 29 25 23 22 18 14 3 346 332 326 322 23 157 115 71 31 10
122 115 108 118 119 115 104 90 90 114 88 86 83 81 78 81 76 70 64 57 51 48 46 48 41 35 24 19 21 27 19 10 356 339 333 329 340 71 83 65 44 30 20
120 121 124 125 124 119 115 113 112 117 120 102 99 95 87 78 72 68 63 58 57 50 48 44 37 32 25 20 15 13 5 355 344 338 333 332 342 32 50 48 41 27 5
124 128 135 133 129 125 123 122 119 116 113 108 100 95 90 84 77 68 60 53 49 45 47 42 32 26 23 17 9 10 3 352 346 335 331 327 331 315 37 31 39 27 7
128 128 137 137 134 130 125 121 118 115 115 110 105 98 92 86 76 69 66 61 53 50 44 39 33 25 20 14 5 6 360 347 341 331 316 316 316 324 351 42 44 27 7
138 135 125 129 133 136 136 131 125 121 116 112 109 103 97 90 84 73 67 62 54 53 45 40 31 26 22 22 21 12 358 342 331 307 307 316 339 329 349 39 27 11 354
136 133 130 122 132 143 143 137 132 126 123 124 121 112 108 93 79 66 59 55 46 46 38 37 34 34 29 25 22 14 6 12 2 338 349 351 355 354 1 356 352 346 339
149 151 155 152 144 141 142 137 136 132 132 130 127 118 98 90 85 69 58 56 46 49 39 35 32 28 25 22 19 14 11 9 353 353 349 349 356 352 350 342 343 334 328
172 168 163 164 159 150 137 140 138 141 135 134 130 135 107 106 111 100 81 74 63 56 47 40 36 25 21 15 13 9 8 354 358 347 334 352 350 345 341 334 330 328 324
185 184 172 171 164 160 156 153 156 156 153 156 143 129 129 121 117 100 72 69 66 59 48 37 33 26 19 0 351 357 353 349 356 340 333 342 341 338 335 331 322 318 316
183 176 183 175 167 166 157 166 169 161 159 149 146 144 140 110 92 86 80 63 60 56 46 41 20 19 9 1 355 350 346 346 336 321 328 333 332 328 324 320 317 312 311
185 187 177 175 173 174 159 166 170 159 157 155 155 140 129 117 104 106 109 101 89 61 48 40 27 7 11 359 350 340 336 327 318 314 322 327 326 323 323 320 315 310 309
193 187 184 175 175 173 166 165 165 173 162 165 151 142 138 132 134 135 123 104 76 49 39 25 14 9 2 356 346 348 339 327 319 309 301 312 320 320 319 317 317 316 315
194 188 179 181 175 164 168 170 173 168 162 154 148 146 133 137 140 127 115 89 78 61 46 35 24 22 3 354 343 339 327 318 314 308 311 310 309 313 314 315 316 325 327
195 178 181 174 169 170 174 173 169 170 158 145 153 146 142 143 138 133 126 107 98 74 60 37 22 23 9 351 337 321 310 297 298 304 302 300 308 303 301 316 318 322 331
174 178 175 175 173 170 171 166 165 164 158 155 151 152 159 150 145 140 138 130 122 93 93 62 44 8 10 340 310 291 274 275 286 289 294 290 279 287 301 307 316 326 329
179 173 175 171 169 166 162 161 163 165 165 166 158 165 166 153 150 145 139 130 118 102 75 55 36 42 350 329 304 291 282 277 274 287 275 281 280 279 298 300 306 316 317
178 173 168 166 164 162 159 154 152 165 173 168 170 172 162 160 159 148 146 144 144 136 132 96 81 312 277 297 308 301 288 290 281 266 296 307 296 301 337 335 1 351 2
166 163 168 164 171 163 167 168 167 185 178 179 181 164 163 160 165 160 153 153 158 156 152 127 125 39 10 349 343 318 308 281 293 2 315 282 293 327 345 20 4 354 329
169 169 169 172 172 174 172 176 168 160 180 159 163 167 171 164 170 165 159 169 162 148 131 115 94 47 40 40 25 318 340 328 356 324 341 344 357 1 349 345 334 317 341
171 172 173 174 175 178 173 160 98 90 77 155 195 181 187 169 171 163 166 163 173 166 157 142 123 116 96 13 56 201 332 321 330 347 328 324 343 336 321 327 310 316 307
179 171 172 175 178 178 170 176 181 192 190 199 191 175 166 166 168 165 169 173 180 170 142 140 135 129 127 206 342 213 221 164 262 316 324 312 306 307 309 297 294 282 277
167 173 175 175 179 179 180 187 190 198 198 144 142 164 165 170 169 173 174 176 177 167 153 150 142 155 161 158 173 296 252 256 231 245 297 288 305 300 297 283 275 278 278
169 172 174 176 185 183 183 187 194 195 179 162 171 179 182 179 177 178 175 166 173 171 158 156 156 143 142 173 199 223 230 243 253 270 287 295 285 279 292 282 272 267 264